Погода в Таллахасси

США     30°26′16″N   84°16′50″W
темп.,
°C
ветер,
м/с
пор.,
м/с
влажн.,
%
обл.,
%
осадки,
мм/ч
давл.,
гПа
погр.,
м
21 октября, чт
чт2123:00+20вюв1169100 0.0 102220
02:00+20вюв2471100 0.0 1021102
05:00+19вюв237986 0.0 102186
08:00+18вюв2384100 0.0 102168
11:00+25ююв236125 0.0 1022670
14:00+29ю1145100 0.0 10201588
17:00+27юз3458100 0.0 1018641
20:00+23ююз2672100 0.0 1019212
22 октября, пт
пт2223:00+22юз24809 0.0 1019116
02:00+20з119265 0.0 101826
05:00+19зюз119715 0.1 101726
08:00+19юз1196100 0.2 101711
11:00+26з126794 0.0 1018598
14:00+29зсз23505 0.3 10161590
17:00+28сз235197 0.0 1015956
20:00+23ююз22704 0.0 101655
23 октября, сб
сб2323:00+21з11860 0.0 101713
02:00+19с24715 0.0 101672
05:00+17с24575 0.0 101672
08:00+16ссв24600 0.0 101883
11:00+24св23430 0.0 1019437
14:00+28св22370 0.0 10171114
17:00+28ссв21350 0.0 10161361
20:00+21св24550 0.0 101769
24 октября, вс
вс2423:00+19всв22520 0.0 101828
02:00+18всв24553 0.0 101884
05:00+16в24615 0.0 101887
08:00+17в25803 0.0 1018106
11:00+25вюв3563100 0.0 1020584
14:00+30юв234660 0.0 10181800
17:00+29ююз3345100 0.0 10161271
20:00+23ю11685 0.0 101811
25 октября, пн
пн2523:00+21зюз117669 0.0 101911
02:00+20в22799 0.0 101931
05:00+19вюв2289100 0.0 101844
08:00+19юв2395100 0.0 101983
11:00+26ююв2367100 0.0 1019673
14:00+29ю2255100 0.0 10161468
17:00+28ю2358100 0.0 1015703
20:00+23ююз2579100 0.0 101699